Theta_e
328 327 326 325 324 323 324 324 324 324 323 323 324 324 323 322 323 324 324 324 323 323 323 323 322 323 325 325 326 327 327 327 327 326 326 326 326 326 325 324 324 324
327 326 326 325 325 324 324 323 323 323 323 323 324 323 322 322 324 323 322 323 323 322 321 321 322 322 323 323 324 326 326 326 326 325 324 323 323 324 324 324 323 323
328 327 326 325 324 324 323 322 322 323 323 323 324 323 321 322 324 323 322 322 321 320 320 321 320 320 320 321 322 323 324 324 323 323 320 318 317 317 318 319 319 320
328 327 325 325 324 323 322 322 322 322 323 323 323 321 321 322 323 322 320 320 320 320 321 321 320 319 319 318 319 320 321 320 320 319 317 315 315 315 315 315 315 316
328 327 325 324 324 324 323 322 322 322 322 322 320 319 320 320 320 318 318 318 318 319 320 320 319 318 318 318 317 317 317 317 317 316 316 317 317 317 316 315 315 314
328 327 325 324 324 324 323 322 321 322 322 321 319 319 319 319 317 316 315 315 316 316 318 319 318 317 317 316 316 315 315 316 315 316 317 318 318 317 316 315 315 316
327 326 324 324 323 322 322 321 320 321 321 319 319 318 318 317 316 315 314 313 314 315 315 316 315 314 314 314 314 315 315 315 315 316 318 318 317 316 316 316 317 317
327 325 324 323 322 321 321 320 320 320 320 319 318 317 316 316 316 315 314 313 313 313 314 314 313 313 313 313 313 313 314 314 315 317 318 318 317 317 316 317 317 316
326 325 324 323 323 322 322 320 319 320 319 318 318 316 316 316 316 315 314 314 313 313 313 313 313 313 313 312 312 313 314 314 315 317 317 317 317 317 316 317 316 316
326 326 326 325 324 323 321 319 318 319 318 317 317 316 315 316 315 315 315 314 313 313 313 313 314 315 314 312 313 315 315 314 315 316 317 316 316 316 316 316 316 316
326 326 326 325 324 324 320 317 317 318 317 318 317 315 315 316 315 314 314 315 314 313 313 314 314 315 315 314 315 316 315 315 316 316 316 316 316 316 315 315 315 315
325 326 326 326 325 324 320 317 318 318 318 319 318 316 316 316 314 314 315 315 315 314 314 314 314 315 315 315 316 316 315 315 315 315 315 315 315 315 315 314 314 313
324 324 324 325 326 324 321 318 318 319 318 320 319 318 318 317 314 313 315 315 315 315 314 315 315 315 314 315 315 316 315 315 315 315 315 315 314 315 315 315 314 313
324 324 325 325 325 325 323 321 321 321 319 319 320 319 319 320 316 315 316 315 314 315 315 315 315 315 314 315 314 315 315 315 315 315 316 315 314 315 315 315 316 315
322 324 325 324 324 326 325 324 324 323 320 320 321 319 318 320 318 317 317 317 315 315 315 315 315 315 315 315 315 315 315 315 315 315 316 316 315 315 315 316 316 316
321 323 324 324 324 325 326 326 325 325 323 322 322 321 319 319 318 317 317 317 317 317 317 316 315 315 315 315 316 316 316 316 316 316 315 316 317 316 316 316 317 317
322 323 324 324 325 325 325 325 325 325 325 323 323 322 320 319 319 319 318 317 317 318 318 317 315 314 315 315 315 316 316 316 316 316 316 317 317 317 316 316 316 317
324 324 324 324 324 324 324 324 325 325 325 324 323 323 322 321 321 320 320 320 319 318 319 318 316 315 315 315 315 315 316 316 316 317 317 317 318 318 318 318 317 317
319 321 323 323 323 323 323 323 323 323 324 324 323 323 323 322 321 321 321 321 321 320 319 319 318 317 317 317 316 315 316 317 317 318 318 318 319 320 319 320 319 318
310 313 315 317 320 321 322 323 322 323 324 324 323 323 323 323 323 322 321 321 322 321 320 320 319 318 318 318 317 316 316 317 319 321 321 320 320 321 321 320 320 320
307 308 308 310 312 314 316 318 320 322 324 324 324 324 323 324 324 324 323 323 322 322 321 321 320 320 320 319 318 318 318 317 319 321 323 322 322 322 321 320 319 319
306 306 307 307 308 309 310 312 314 316 319 321 323 323 323 324 323 323 324 324 323 323 322 322 321 321 320 320 320 319 318 317 318 319 321 322 321 321 321 321 320 319
304 304 304 305 305 307 308 309 310 311 312 314 317 318 320 321 322 323 323 323 323 323 323 322 322 321 321 320 320 319 318 318 317 317 319 320 320 320 320 320 320 319
302 302 302 303 304 305 305 307 308 309 310 311 311 312 314 316 317 320 321 322 322 322 322 321 321 321 320 320 319 319 320 320 318 318 319 319 319 319 319 319 319 319
301 301 301 302 302 303 303 304 305 306 307 309 310 310 310 311 312 314 317 319 320 320 320 321 320 320 320 320 320 320 320 321 320 319 320 320 318 318 318 317 318 318
300 301 301 301 301 302 302 303 303 303 304 304 305 306 307 308 310 311 313 314 316 318 319 320 320 320 320 320 319 320 320 320 320 320 320 320 318 317 317 317 317 317
Wind_Speed
24 23 22 20 18 17 17 15 13 12 13 14 15 16 14 12 9 9 11 11 9 8 10 11 11 10 12 13 11 11 12 14 15 16 14 14 14 14 13 12 12 14
22 21 20 20 19 17 17 15 12 12 15 17 18 16 14 13 11 10 12 11 9 10 10 9 10 12 14 13 12 14 15 15 16 15 14 13 12 12 12 11 10 12
19 20 20 20 20 18 17 15 13 14 17 18 17 15 13 13 12 11 12 11 11 11 9 9 11 12 12 12 12 14 15 15 15 15 15 15 13 14 16 16 15 14
19 19 20 20 20 18 17 16 15 15 17 17 15 13 13 14 13 12 12 12 13 12 11 12 13 12 12 11 10 12 14 15 15 15 15 14 13 15 18 19 20 19
19 19 20 21 20 18 17 17 16 16 17 16 14 14 15 16 15 14 13 14 15 13 12 13 12 12 12 10 10 12 14 14 14 15 15 14 14 15 16 17 19 19
18 17 20 21 21 19 17 17 16 16 16 15 15 16 17 17 15 15 15 15 15 13 14 15 13 12 12 11 12 12 12 13 14 14 15 16 17 16 16 16 17 17
17 17 20 21 20 18 17 17 16 16 16 15 16 17 17 17 16 15 15 15 14 14 15 16 14 12 13 13 14 13 12 13 14 15 16 17 17 17 17 16 16 16
17 17 19 19 18 17 17 17 16 16 15 15 17 17 17 17 15 14 15 14 14 14 14 15 14 14 14 14 15 15 14 15 15 16 17 17 18 18 18 17 17 17
19 18 18 18 17 17 17 17 17 16 15 16 16 15 16 16 14 13 13 13 14 14 13 14 14 13 13 15 15 14 15 16 16 15 17 18 19 18 17 17 17 16
20 20 18 18 17 15 16 18 17 16 15 15 15 14 14 14 14 12 12 13 15 14 13 14 14 12 14 16 14 12 17 20 18 16 18 19 19 17 16 15 16 15
21 19 17 17 16 13 15 17 15 15 15 14 13 13 12 12 14 12 11 14 15 13 14 15 14 12 15 16 13 13 19 21 19 18 19 19 17 16 15 15 15 15
12 12 11 13 14 12 14 16 14 14 15 13 12 12 10 11 13 12 11 13 13 13 15 15 14 13 16 17 15 14 18 20 19 17 17 18 18 16 15 14 13 14
6 10 11 11 11 13 15 15 14 14 14 12 11 11 10 10 12 11 11 12 12 13 15 14 13 14 16 17 17 16 17 18 18 16 14 16 18 16 15 14 13 14
11 15 14 9 8 11 13 13 13 13 13 12 11 12 10 9 11 10 10 11 10 11 15 15 14 15 17 17 17 17 17 18 18 16 14 15 17 16 15 14 13 12
12 14 14 10 8 10 11 11 11 11 12 11 10 12 12 9 10 10 8 9 9 9 13 16 15 16 18 17 16 17 17 17 18 18 16 16 16 16 16 15 14 14
12 12 13 10 8 8 8 8 9 9 11 10 8 10 12 11 10 10 9 9 10 8 10 16 18 17 18 18 16 17 18 17 17 18 17 17 16 17 17 17 17 16
8 7 7 5 5 6 6 5 6 7 10 11 9 7 10 11 11 10 9 10 12 11 9 13 18 20 19 19 18 18 19 19 18 17 17 16 16 17 18 19 19 18
9 8 6 3 2 2 2 2 4 6 7 10 10 7 6 8 10 11 10 10 12 14 12 12 15 18 19 19 20 20 19 20 19 18 17 17 17 17 18 20 21 21
11 10 7 5 3 3 3 1 4 6 5 7 9 8 7 7 9 11 12 11 11 13 14 14 14 15 16 16 19 20 19 19 19 18 18 19 18 18 19 21 22 21
20 16 13 8 6 5 5 5 7 6 5 5 6 8 9 10 10 12 14 14 14 14 15 17 17 17 16 16 18 19 19 18 17 15 16 19 20 18 19 20 21 20
24 23 21 19 15 12 8 4 1 3 4 5 5 6 7 9 10 11 13 15 17 17 18 20 21 21 21 20 20 20 20 20 18 15 13 16 19 20 19 18 19 21
22 21 20 20 19 19 18 16 13 9 5 4 6 6 7 8 9 10 12 14 15 17 18 20 22 22 23 23 23 24 24 24 23 20 17 16 16 18 20 21 20 21
18 19 19 19 18 18 18 17 16 14 13 11 9 8 8 9 10 12 13 13 14 16 17 19 21 22 23 23 24 24 26 26 27 26 23 19 16 16 19 20 21 21
15 16 17 18 17 17 17 17 16 15 14 14 13 13 12 11 12 13 15 15 16 18 18 19 20 20 20 22 23 24 26 27 28 28 25 21 18 18 18 19 20 22
15 15 17 18 19 19 18 18 17 17 16 16 16 16 15 15 16 15 15 17 18 20 21 21 20 19 19 21 22 23 25 27 28 29 27 23 20 20 19 18 18 21
17 17 18 19 20 20 20 19 19 19 19 20 19 20 20 20 20 19 19 19 19 20 22 24 23 22 20 21 22 23 25 27 28 28 29 28 24 22 21 21 22 22
Wind_Direction
159 163 163 164 165 168 173 177 180 181 180 173 160 152 146 143 147 147 141 139 135 140 142 120 105 122 131 125 128 132 134 138 141 143 141 135 137 141 141 139 139 143
161 164 162 163 167 171 173 175 177 177 176 169 159 154 151 150 152 150 147 147 139 137 142 126 112 122 128 127 131 132 130 131 135 140 140 138 139 145 149 145 136 133
164 166 166 167 170 170 168 169 169 168 167 163 159 158 154 153 154 150 146 149 146 141 136 124 120 124 128 131 136 138 137 134 137 141 139 134 129 131 133 130 126 127
168 169 171 171 170 167 164 164 164 165 164 160 157 155 151 153 155 151 148 148 148 146 138 125 120 126 133 135 135 138 139 136 139 142 136 128 125 126 127 123 120 122
172 174 176 173 169 166 165 165 164 165 164 160 156 151 151 153 151 150 150 148 146 146 143 137 130 132 138 141 138 136 137 138 140 141 132 122 123 127 128 127 121 119
173 175 176 173 169 169 170 169 166 165 164 160 156 154 154 153 151 149 148 147 147 148 149 146 139 138 142 144 144 141 142 145 146 144 132 122 122 125 127 128 121 115
172 170 170 171 171 171 174 174 171 169 165 159 156 156 154 151 149 149 148 148 149 148 147 146 142 143 147 147 146 148 152 154 151 145 135 126 125 128 129 130 124 118
171 165 166 170 169 170 176 177 174 170 165 160 159 157 155 154 152 152 155 154 150 148 148 149 148 148 151 152 153 156 160 158 154 149 144 138 136 135 133 132 129 125
176 169 170 173 171 172 179 178 173 170 166 164 163 158 158 162 159 157 162 162 156 153 152 153 153 153 153 153 155 162 167 165 162 161 157 148 144 144 141 137 133 128
182 174 173 177 176 176 177 176 173 170 166 167 168 163 164 169 164 162 172 170 160 157 156 156 155 155 155 155 154 157 160 161 160 156 154 148 145 147 150 148 142 135
183 175 172 176 181 182 176 173 172 169 168 171 171 168 170 171 164 166 177 174 166 162 161 160 160 159 160 160 156 149 154 160 158 153 154 154 152 151 153 156 154 148
181 170 165 172 182 183 174 172 172 169 171 175 172 170 174 171 167 170 177 174 171 170 167 164 165 165 163 165 163 155 158 163 161 158 161 164 162 159 157 160 161 162
182 174 169 171 177 173 164 167 174 174 175 177 175 176 178 172 169 174 180 179 178 178 176 171 170 172 170 170 172 167 165 168 168 167 166 164 164 162 161 161 165 172
186 181 177 180 186 175 166 165 170 173 176 180 182 185 186 177 174 179 185 186 186 186 185 179 176 181 183 179 177 176 175 175 178 178 170 164 163 161 162 165 173 181
184 177 172 183 191 179 175 179 180 175 176 181 187 190 193 192 188 190 193 194 197 199 195 191 188 188 191 189 185 185 185 184 187 187 181 178 176 172 170 172 178 183
180 172 170 179 177 165 172 190 199 194 188 189 192 189 191 196 198 199 203 206 213 220 206 198 197 195 196 199 198 197 195 195 197 196 191 191 189 184 183 183 183 185
141 131 150 169 174 181 191 196 208 211 203 204 208 196 186 189 194 201 208 211 217 226 219 202 199 199 200 202 204 205 205 204 205 203 200 201 199 193 190 189 191 195
110 97 101 98 91 140 165 183 223 230 217 214 221 219 202 197 201 208 215 217 217 223 225 214 205 204 204 205 206 207 209 210 210 210 208 207 206 202 196 193 195 198
93 104 114 124 118 107 100 140 241 244 234 231 237 241 240 231 222 221 226 232 233 231 230 230 225 216 210 209 209 208 209 208 209 211 212 210 207 203 199 198 197 196
50 55 59 68 96 128 148 184 214 230 242 247 250 254 257 257 249 239 238 243 248 249 244 242 243 238 230 222 216 213 213 211 209 210 211 209 208 205 201 198 199 201
33 33 33 32 34 36 38 42 220 239 246 249 260 271 270 268 264 257 252 251 253 254 252 249 248 248 246 242 236 231 228 224 220 219 221 219 214 211 208 206 208 215
22 20 19 18 15 12 13 15 13 9 2 316 285 281 277 273 268 262 259 259 257 257 257 255 253 252 253 253 251 246 241 237 233 232 234 233 221 216 218 217 214 219
13 10 7 5 2 359 357 357 356 358 2 0 344 324 306 291 280 271 266 266 264 262 262 262 261 258 257 257 257 253 247 244 243 241 241 236 229 228 230 227 227 233
3 359 357 357 356 353 348 345 343 340 340 342 341 338 329 317 304 288 272 265 266 265 263 264 264 264 262 259 259 257 252 247 246 246 244 237 230 235 237 235 235 235
353 350 349 350 349 346 343 338 334 330 325 323 323 322 320 316 312 302 284 270 264 263 262 262 261 262 264 263 262 261 257 253 249 247 246 242 234 232 231 230 230 227
346 344 342 341 341 340 339 336 331 327 324 320 317 313 310 307 303 300 296 288 276 266 261 258 255 255 258 262 264 263 261 259 254 248 245 242 237 231 227 227 228 228